TVF3231 GVAC-GMAD

Flight info

Callsign TVF3231
Flight time 2h 31m
Altitude 29000
Route PINPO2A PINPO UW11 GUNET N857 BIPET DCT CABOJ DCT LAY L660 SOLNA UA600 TEKNA
Aircraft B738/M-SDFGHIJ1RWXY/LB1

Departure

Time 2026-05-01 11:20
Airport Amílcar Cabral International Airport (GVAC)

Arrival

Time 2026-05-01 13:51
Airport Al Massira Airport (GMAD)
Time Latitude Longitude Altitude Speed Heading
2026-05-01 10:48 16.73560 -22.94504 209 ft 0 kts 90°
2026-05-01 11:10 16.73560 -22.94519 209 ft 4 kts 90°
2026-05-01 11:10 16.73560 -22.94547 203 ft 4 kts 90°
2026-05-01 11:11 16.73560 -22.94571 199 ft 4 kts 98°
2026-05-01 11:11 16.73570 -22.94595 212 ft 4 kts 142°
2026-05-01 11:11 16.73591 -22.94606 199 ft 1 kts 164°
2026-05-01 11:11 16.73595 -22.94607 199 ft 0 kts 164°
2026-05-01 11:14 16.73591 -22.94606 199 ft 2 kts 165°
2026-05-01 11:15 16.73561 -22.94601 199 ft 7 kts 174°
2026-05-01 11:15 16.73492 -22.94598 199 ft 13 kts 180°
2026-05-01 11:15 16.73400 -22.94596 199 ft 13 kts 178°
2026-05-01 11:15 16.73311 -22.94595 209 ft 12 kts 180°
2026-05-01 11:16 16.73227 -22.94594 205 ft 12 kts 179°
2026-05-01 11:16 16.73155 -22.94594 207 ft 9 kts 179°
2026-05-01 11:16 16.73104 -22.94600 204 ft 6 kts 203°
2026-05-01 11:16 16.73072 -22.94632 199 ft 6 kts 234°
2026-05-01 11:17 16.73047 -22.94670 203 ft 6 kts 231°
2026-05-01 11:17 16.73008 -22.94690 199 ft 7 kts 189°
2026-05-01 11:17 16.72923 -22.94690 190 ft 18 kts 179°
2026-05-01 11:17 16.72780 -22.94687 188 ft 21 kts 179°
2026-05-01 11:18 16.72635 -22.94686 185 ft 21 kts 180°
2026-05-01 11:18 16.72498 -22.94691 182 ft 17 kts 195°
2026-05-01 11:18 16.72421 -22.94710 182 ft 11 kts 222°
2026-05-01 11:18 16.72406 -22.94784 183 ft 10 kts 269°
2026-05-01 11:19 16.72414 -22.94857 185 ft 10 kts 295°
2026-05-01 11:19 16.72476 -22.94885 186 ft 12 kts 358°
2026-05-01 11:19 16.72705 -22.94887 185 ft 66 kts 360°
2026-05-01 11:19 16.73388 -22.94890 192 ft 129 kts
2026-05-01 11:20 16.74453 -22.94888 326 ft 170 kts
2026-05-01 11:20 16.75649 -22.94894 1087 ft 172 kts
2026-05-01 11:20 16.76853 -22.94885 1886 ft 179 kts
2026-05-01 11:20 16.78186 -22.94869 2240 ft 205 kts
2026-05-01 11:21 16.79663 -22.94856 2523 ft 222 kts
2026-05-01 11:21 16.81230 -22.94856 3073 ft 225 kts
2026-05-01 11:21 16.82819 -22.94849 3559 ft 231 kts
2026-05-01 11:21 16.84424 -22.94778 4049 ft 239 kts
2026-05-01 11:22 16.85944 -22.94072 4593 ft 243 kts 39°
2026-05-01 11:22 16.86928 -22.92618 5070 ft 254 kts 68°
2026-05-01 11:22 16.87363 -22.90810 5554 ft 259 kts 77°
2026-05-01 11:22 16.87721 -22.88962 6060 ft 262 kts 78°
2026-05-01 11:23 16.88091 -22.87080 6545 ft 266 kts 78°
2026-05-01 11:23 16.88482 -22.85189 7075 ft 266 kts 78°
2026-05-01 11:23 16.88888 -22.83305 7593 ft 267 kts 78°
2026-05-01 11:23 16.89320 -22.81402 8050 ft 271 kts 78°
2026-05-01 11:24 16.89794 -22.79505 8579 ft 273 kts 72°
2026-05-01 11:24 16.90657 -22.77725 9081 ft 278 kts 60°
2026-05-01 11:24 16.93071 -22.74276 9876 ft 305 kts 53°
2026-05-01 11:25 16.94435 -22.72575 10563 ft 310 kts 52°
2026-05-01 11:25 16.97498 -22.68963 10922 ft 354 kts 50°
2026-05-01 11:25 16.99201 -22.67024 11192 ft 369 kts 49°
2026-05-01 11:26 17.00959 -22.65051 11791 ft 372 kts 49°
2026-05-01 11:26 17.04537 -22.61078 12997 ft 379 kts 49°
2026-05-01 11:26 17.06354 -22.59068 13572 ft 383 kts 49°
2026-05-01 11:27 17.08194 -22.57033 14115 ft 387 kts 49°
2026-05-01 11:27 17.10051 -22.54981 14620 ft 390 kts 48°
2026-05-01 11:27 17.11918 -22.52916 15157 ft 392 kts 48°
2026-05-01 11:27 17.13802 -22.50832 15633 ft 396 kts 48°
2026-05-01 11:28 17.15702 -22.48729 16142 ft 399 kts 47°
2026-05-01 11:28 17.17612 -22.46614 16624 ft 402 kts 47°
2026-05-01 11:28 17.19543 -22.44476 17120 ft 405 kts 47°
2026-05-01 11:29 17.23443 -22.40154 18086 ft 410 kts 46°
2026-05-01 11:29 17.25406 -22.37978 18550 ft 413 kts 46°
2026-05-01 11:29 17.29364 -22.33588 19373 ft 418 kts 45°
2026-05-01 11:30 17.31336 -22.31399 19800 ft 419 kts 45°
2026-05-01 11:30 17.33365 -22.29146 20191 ft 422 kts 45°
2026-05-01 11:30 17.35354 -22.26937 20599 ft 423 kts 45°
2026-05-01 11:30 17.37381 -22.24685 20963 ft 427 kts 45°
2026-05-01 11:31 17.39445 -22.22390 21379 ft 428 kts 45°
2026-05-01 11:31 17.41465 -22.20145 21762 ft 430 kts 45°
2026-05-01 11:31 17.43549 -22.17827 22154 ft 432 kts 45°
2026-05-01 11:31 17.45587 -22.15558 22502 ft 435 kts 45°
2026-05-01 11:32 17.47694 -22.13214 22875 ft 437 kts 44°
2026-05-01 11:32 17.49757 -22.10917 23204 ft 440 kts 44°
2026-05-01 11:32 17.51892 -22.08538 23498 ft 444 kts 44°
2026-05-01 11:32 17.53983 -22.06209 23800 ft 446 kts 44°
2026-05-01 11:33 17.56114 -22.03833 24096 ft 448 kts 44°
2026-05-01 11:33 17.58255 -22.01444 24377 ft 450 kts 44°
2026-05-01 11:33 17.60405 -21.99044 24642 ft 453 kts 44°
2026-05-01 11:33 17.62565 -21.96634 24910 ft 455 kts 44°
2026-05-01 11:34 17.64739 -21.94208 25176 ft 457 kts 44°
2026-05-01 11:34 17.66921 -21.91773 25441 ft 460 kts 44°
2026-05-01 11:34 17.69118 -21.89327 25700 ft 462 kts 44°
2026-05-01 11:34 17.71326 -21.86869 25960 ft 464 kts 44°
2026-05-01 11:35 17.73542 -21.84401 26213 ft 466 kts 44°
2026-05-01 11:35 17.75770 -21.81919 26464 ft 468 kts 44°
2026-05-01 11:35 17.78008 -21.79424 26716 ft 470 kts 44°
2026-05-01 11:35 17.80250 -21.76921 26980 ft 472 kts 44°
2026-05-01 11:36 17.82504 -21.74405 27224 ft 474 kts 44°
2026-05-01 11:36 17.84769 -21.71875 27449 ft 476 kts 44°
2026-05-01 11:36 17.87045 -21.69332 27660 ft 480 kts 44°
2026-05-01 11:36 17.89337 -21.66770 27846 ft 483 kts 44°
2026-05-01 11:37 17.91640 -21.64195 28064 ft 485 kts 44°
2026-05-01 11:37 17.93950 -21.61610 28321 ft 486 kts 44°
2026-05-01 11:37 17.96269 -21.59014 28565 ft 488 kts 44°
2026-05-01 11:37 17.98595 -21.56410 28762 ft 490 kts 44°
2026-05-01 11:38 18.00930 -21.53794 28968 ft 492 kts 44°
2026-05-01 11:38 18.03257 -21.51186 29174 ft 494 kts 44°
2026-05-01 11:38 18.05632 -21.48524 29385 ft 496 kts 44°
2026-05-01 11:38 18.07993 -21.45875 29588 ft 498 kts 44°
2026-05-01 11:39 18.10364 -21.43216 29778 ft 500 kts 44°
2026-05-01 11:39 18.12745 -21.40543 29969 ft 502 kts 44°
2026-05-01 11:39 18.15130 -21.37864 30201 ft 502 kts 44°
2026-05-01 11:39 18.17513 -21.35186 30460 ft 501 kts 44°
2026-05-01 11:40 18.19894 -21.32508 30741 ft 500 kts 44°
2026-05-01 11:40 18.22267 -21.29839 31020 ft 500 kts 44°
2026-05-01 11:40 18.24645 -21.27165 31207 ft 501 kts 44°
2026-05-01 11:40 18.27028 -21.24483 31386 ft 502 kts 44°
2026-05-01 11:41 18.29414 -21.21798 31636 ft 502 kts 44°
2026-05-01 11:41 18.31793 -21.19117 31926 ft 501 kts 44°
2026-05-01 11:41 18.34171 -21.16437 32192 ft 500 kts 44°
2026-05-01 11:41 18.36545 -21.13761 32420 ft 501 kts 44°
2026-05-01 11:42 18.38923 -21.11079 32661 ft 501 kts 44°
2026-05-01 11:42 18.41297 -21.08400 32919 ft 500 kts 44°
2026-05-01 11:42 18.43671 -21.05720 33177 ft 500 kts 44°
2026-05-01 11:42 18.46040 -21.03045 33417 ft 500 kts 44°
2026-05-01 11:43 18.48410 -21.00368 33645 ft 500 kts 44°
2026-05-01 11:43 18.50781 -20.97687 33890 ft 500 kts 44°
2026-05-01 11:43 18.53150 -20.95009 34135 ft 499 kts 44°
2026-05-01 11:44 18.57880 -20.89656 34527 ft 499 kts 44°
2026-05-01 11:44 18.60148 -20.87089 34736 ft 499 kts 44°
2026-05-01 11:44 18.62609 -20.84301 34902 ft 499 kts 44°
2026-05-01 11:44 18.64974 -20.81621 35069 ft 500 kts 44°
2026-05-01 11:45 18.67342 -20.78936 35279 ft 499 kts 44°
2026-05-01 11:45 18.69699 -20.76262 35509 ft 498 kts 44°
2026-05-01 11:45 18.72055 -20.73588 35702 ft 497 kts 44°
2026-05-01 11:45 18.74411 -20.70914 35862 ft 498 kts 44°
2026-05-01 11:46 18.76769 -20.68236 36021 ft 498 kts 44°
2026-05-01 11:46 18.79125 -20.65559 36217 ft 497 kts 44°
2026-05-01 11:46 18.81440 -20.62927 36438 ft 496 kts 44°
2026-05-01 11:46 18.83782 -20.60263 36658 ft 494 kts 44°
2026-05-01 11:47 18.86117 -20.57606 36830 ft 494 kts 44°
2026-05-01 11:47 18.88456 -20.54944 36957 ft 495 kts 44°
2026-05-01 11:47 18.90796 -20.52280 37082 ft 495 kts 44°
2026-05-01 11:47 18.93142 -20.49608 37111 ft 497 kts 44°
2026-05-01 11:48 18.97839 -20.44253 37120 ft 496 kts 44°
2026-05-01 11:48 19.02518 -20.38913 37114 ft 494 kts 44°
2026-05-01 11:49 19.07136 -20.33639 37114 ft 493 kts 44°
2026-05-01 11:49 19.11825 -20.28279 37114 ft 492 kts 44°
2026-05-01 11:50 19.16463 -20.22973 37115 ft 491 kts 44°
2026-05-01 11:50 19.20318 -20.18560 37119 ft 491 kts 44°
2026-05-01 11:51 19.24954 -20.13246 37121 ft 492 kts 44°
2026-05-01 11:51 19.29602 -20.07915 37121 ft 493 kts 44°
2026-05-01 11:52 19.34255 -20.02573 37123 ft 494 kts 44°
2026-05-01 11:52 19.38922 -19.97211 37117 ft 496 kts 44°
2026-05-01 11:53 19.43598 -19.91832 37120 ft 497 kts 44°
2026-05-01 11:53 19.48289 -19.86431 37117 ft 498 kts 44°
2026-05-01 11:54 19.52983 -19.81021 37114 ft 499 kts 44°
2026-05-01 11:54 19.57694 -19.75605 37115 ft 499 kts 42°
2026-05-01 11:55 19.63110 -19.71156 37113 ft 488 kts 25°
2026-05-01 11:55 19.69046 -19.67667 37132 ft 488 kts 24°
2026-05-01 11:56 19.74998 -19.64195 37116 ft 488 kts 24°
2026-05-01 11:56 19.80891 -19.60698 37113 ft 489 kts 24°
2026-05-01 11:57 19.86810 -19.57148 37115 ft 489 kts 24°
2026-05-01 11:57 19.92723 -19.53592 37117 ft 488 kts 24°
2026-05-01 11:58 19.98633 -19.50035 37116 ft 488 kts 24°
2026-05-01 11:59 20.07501 -19.44698 37113 ft 488 kts 24°
2026-05-01 11:59 20.13410 -19.41138 37118 ft 488 kts 24°
2026-05-01 12:00 20.22270 -19.35795 37117 ft 488 kts 24°
2026-05-01 12:01 20.31124 -19.30447 37123 ft 488 kts 24°
2026-05-01 12:01 20.37026 -19.26879 37119 ft 488 kts 24°
2026-05-01 12:02 20.42927 -19.23308 37117 ft 488 kts 24°
2026-05-01 12:02 20.48828 -19.19733 37119 ft 488 kts 24°
2026-05-01 12:03 20.54732 -19.16155 37120 ft 488 kts 24°
2026-05-01 12:03 20.60633 -19.12574 37119 ft 488 kts 24°
2026-05-01 12:04 20.66536 -19.08989 37118 ft 488 kts 24°
2026-05-01 12:04 20.72440 -19.05399 37134 ft 488 kts 24°
2026-05-01 12:05 20.78345 -19.01807 37119 ft 489 kts 24°
2026-05-01 12:05 20.87212 -18.96405 37118 ft 489 kts 24°
2026-05-01 12:06 20.93121 -18.92802 37120 ft 489 kts 24°
2026-05-01 12:06 20.99031 -18.89194 37114 ft 489 kts 24°
2026-05-01 12:07 21.04941 -18.85584 37143 ft 489 kts 24°
2026-05-01 12:07 21.10853 -18.81969 37122 ft 490 kts 24°
2026-05-01 12:08 21.16770 -18.78346 37118 ft 490 kts 24°
2026-05-01 12:08 21.22685 -18.74722 37122 ft 490 kts 24°
2026-05-01 12:09 21.28559 -18.71119 37123 ft 490 kts 24°
2026-05-01 12:09 21.34513 -18.67464 37118 ft 490 kts 24°
2026-05-01 12:10 21.43346 -18.62039 37126 ft 491 kts 24°
2026-05-01 12:11 21.52231 -18.56572 37125 ft 491 kts 24°
2026-05-01 12:11 21.58155 -18.52922 37122 ft 491 kts 24°
2026-05-01 12:12 21.64078 -18.49268 37125 ft 491 kts 24°
2026-05-01 12:12 21.70002 -18.45611 37126 ft 491 kts 24°
2026-05-01 12:13 21.75925 -18.41951 37128 ft 491 kts 24°
2026-05-01 12:13 21.81855 -18.38283 37132 ft 491 kts 24°
2026-05-01 12:14 21.87780 -18.34614 37124 ft 491 kts 24°
2026-05-01 12:14 21.93703 -18.30944 37130 ft 491 kts 24°
2026-05-01 12:15 21.99629 -18.27267 37130 ft 491 kts 24°
2026-05-01 12:15 22.05551 -18.23590 37126 ft 491 kts 24°
2026-05-01 12:16 22.11436 -18.19932 37136 ft 492 kts 24°
2026-05-01 12:16 22.16217 -18.16959 37133 ft 492 kts 24°
2026-05-01 12:17 22.22138 -18.13272 37130 ft 492 kts 24°
2026-05-01 12:17 22.28040 -18.09593 37131 ft 492 kts 24°
2026-05-01 12:18 22.33958 -18.05900 37133 ft 491 kts 24°
2026-05-01 12:18 22.39861 -18.02214 37154 ft 491 kts 24°
2026-05-01 12:19 22.45785 -17.98511 37135 ft 492 kts 24°
2026-05-01 12:19 22.50791 -17.95379 37131 ft 492 kts 24°
2026-05-01 12:20 22.56785 -17.91625 37131 ft 492 kts 24°
2026-05-01 12:20 22.62660 -17.87941 37131 ft 492 kts 24°
2026-05-01 12:21 22.68522 -17.84263 37131 ft 492 kts 24°
2026-05-01 12:21 22.74440 -17.80545 37155 ft 492 kts 24°
2026-05-01 12:22 22.80366 -17.76820 37140 ft 493 kts 24°
2026-05-01 12:22 22.86296 -17.73087 37129 ft 493 kts 24°
2026-05-01 12:23 22.92219 -17.69355 37134 ft 493 kts 24°
2026-05-01 12:23 22.98144 -17.65618 37133 ft 492 kts 24°
2026-05-01 12:24 23.04067 -17.61878 37135 ft 492 kts 24°
2026-05-01 12:24 23.09990 -17.58135 37129 ft 493 kts 24°
2026-05-01 12:25 23.18879 -17.52510 37131 ft 493 kts 24°
2026-05-01 12:26 23.24803 -17.48756 37148 ft 493 kts 24°
2026-05-01 12:26 23.33684 -17.43121 37136 ft 493 kts 24°
2026-05-01 12:27 23.42559 -17.37481 37150 ft 493 kts 24°
2026-05-01 12:28 23.51438 -17.31830 37137 ft 493 kts 24°
2026-05-01 12:29 23.60313 -17.26172 37140 ft 492 kts 24°
2026-05-01 12:29 23.69175 -17.20514 37142 ft 492 kts 24°
2026-05-01 12:30 23.77996 -17.14872 37143 ft 492 kts 24°
2026-05-01 12:31 23.83901 -17.11091 37141 ft 492 kts 24°
2026-05-01 12:31 23.89812 -17.07302 37142 ft 492 kts 24°
2026-05-01 12:32 23.95717 -17.03513 37139 ft 492 kts 24°
2026-05-01 12:32 24.04569 -16.97825 37154 ft 492 kts 24°
2026-05-01 12:33 24.10477 -16.94023 37147 ft 493 kts 24°
2026-05-01 12:33 24.16380 -16.90221 37142 ft 493 kts 24°
2026-05-01 12:34 24.22289 -16.86410 37141 ft 493 kts 24°
2026-05-01 12:34 24.28190 -16.82601 37146 ft 492 kts 24°
2026-05-01 12:35 24.34092 -16.78786 37147 ft 492 kts 24°
2026-05-01 12:35 24.39988 -16.74972 37170 ft 492 kts 24°
2026-05-01 12:36 24.45888 -16.71150 37155 ft 492 kts 24°
2026-05-01 12:36 24.51786 -16.67326 37141 ft 492 kts 24°
2026-05-01 12:37 24.56682 -16.64148 37143 ft 492 kts 24°
2026-05-01 12:37 24.62568 -16.60324 37144 ft 491 kts 24°
2026-05-01 12:38 24.68447 -16.56500 37142 ft 491 kts 24°
2026-05-01 12:38 24.74323 -16.52674 37154 ft 491 kts 24°
2026-05-01 12:39 24.80197 -16.48844 37150 ft 491 kts 24°
2026-05-01 12:39 24.86069 -16.45012 37148 ft 490 kts 25°
2026-05-01 12:40 24.91936 -16.41178 37150 ft 490 kts 25°
2026-05-01 12:40 24.97769 -16.37287 37147 ft 493 kts 30°
2026-05-01 12:41 25.02799 -16.32052 37142 ft 505 kts 49°
2026-05-01 12:41 25.04893 -16.28926 37256 ft 507 kts 50°
2026-05-01 12:41 25.06963 -16.25779 37480 ft 506 kts 51°
2026-05-01 12:42 25.09021 -16.22646 37736 ft 503 kts 50°
2026-05-01 12:42 25.11081 -16.19531 37928 ft 503 kts 50°
2026-05-01 12:42 25.13151 -16.16422 38058 ft 502 kts 50°
2026-05-01 12:42 25.15230 -16.13319 38142 ft 503 kts 50°
2026-05-01 12:43 25.19417 -16.07098 38153 ft 505 kts 50°
2026-05-01 12:43 25.23602 -16.00875 38152 ft 504 kts 50°
2026-05-01 12:44 25.27748 -15.94699 38157 ft 503 kts 50°
2026-05-01 12:45 25.36065 -15.82277 38151 ft 502 kts 50°
2026-05-01 12:45 25.40213 -15.76070 38182 ft 501 kts 50°
2026-05-01 12:46 25.44356 -15.69863 38156 ft 501 kts 50°
2026-05-01 12:46 25.48495 -15.63652 38138 ft 501 kts 50°
2026-05-01 12:47 25.52626 -15.57445 38150 ft 501 kts 50°
2026-05-01 12:47 25.56752 -15.51239 38152 ft 500 kts 50°
2026-05-01 12:48 25.60876 -15.45026 38150 ft 500 kts 50°
2026-05-01 12:48 25.64993 -15.38817 38151 ft 500 kts 50°
2026-05-01 12:49 25.69114 -15.32593 38156 ft 501 kts 50°
2026-05-01 12:49 25.73235 -15.26361 38156 ft 501 kts 50°
2026-05-01 12:50 25.76588 -15.21284 38186 ft 502 kts 50°
2026-05-01 12:50 25.80714 -15.15028 38166 ft 502 kts 50°
2026-05-01 12:51 25.84813 -15.08806 38144 ft 503 kts 50°
2026-05-01 12:52 25.90998 -14.99401 38149 ft 503 kts 50°
2026-05-01 12:52 25.97177 -14.89984 38148 ft 503 kts 50°
2026-05-01 12:53 26.03345 -14.80566 38149 ft 502 kts 50°
2026-05-01 12:54 26.07454 -14.74280 38150 ft 502 kts 50°
2026-05-01 12:54 26.13609 -14.64851 38163 ft 502 kts 50°
2026-05-01 12:55 26.20018 -14.55671 38148 ft 500 kts 47°
2026-05-01 12:56 26.24394 -14.49657 38148 ft 499 kts 47°
2026-05-01 12:56 26.28733 -14.43625 38157 ft 499 kts 47°
2026-05-01 12:57 26.33047 -14.37570 38155 ft 498 kts 47°
2026-05-01 12:57 26.39499 -14.28479 38155 ft 498 kts 47°
2026-05-01 12:58 26.43797 -14.22415 38155 ft 498 kts 47°
2026-05-01 12:59 26.50242 -14.13312 38156 ft 499 kts 47°
2026-05-01 12:59 26.56685 -14.04193 38152 ft 498 kts 48°
2026-05-01 13:00 26.63115 -13.95073 38160 ft 498 kts 48°
2026-05-01 13:01 26.69515 -13.85978 38153 ft 498 kts 48°
2026-05-01 13:02 26.75933 -13.76838 38150 ft 498 kts 48°
2026-05-01 13:07 27.23572 -13.10737 38137 ft 490 kts 41°
2026-05-01 13:08 27.28364 -13.05169 38133 ft 490 kts 42°
2026-05-01 13:08 27.33071 -12.99609 38134 ft 490 kts 42°
2026-05-01 13:09 27.37758 -12.94037 38130 ft 491 kts 42°
2026-05-01 13:09 27.42419 -12.88490 38125 ft 491 kts 42°
2026-05-01 13:10 27.47114 -12.82900 38153 ft 491 kts 42°
2026-05-01 13:10 27.51814 -12.77298 38134 ft 492 kts 43°
2026-05-01 13:11 27.56513 -12.71690 38125 ft 492 kts 43°
2026-05-01 13:11 27.61205 -12.66080 38127 ft 491 kts 43°
2026-05-01 13:12 27.65891 -12.60473 38121 ft 491 kts 43°
2026-05-01 13:12 27.70602 -12.54916 38124 ft 489 kts 41°
2026-05-01 13:13 27.75349 -12.49430 38125 ft 488 kts 41°
2026-05-01 13:13 27.80094 -12.43944 38127 ft 487 kts 41°
2026-05-01 13:14 27.84816 -12.38457 38132 ft 487 kts 42°
2026-05-01 13:14 27.89530 -12.32961 38124 ft 486 kts 42°
2026-05-01 13:15 27.94228 -12.27474 38123 ft 485 kts 42°
2026-05-01 13:15 27.98916 -12.21992 38124 ft 484 kts 42°
2026-05-01 13:16 28.03592 -12.16518 38119 ft 483 kts 42°
2026-05-01 13:16 28.08259 -12.11048 38121 ft 483 kts 42°
2026-05-01 13:17 28.17571 -12.00111 38121 ft 482 kts 42°
2026-05-01 13:18 28.24544 -11.91903 38123 ft 481 kts 42°
2026-05-01 13:18 28.29185 -11.86430 38110 ft 481 kts 42°
2026-05-01 13:19 28.33823 -11.80953 38115 ft 481 kts 43°
2026-05-01 13:20 28.40741 -11.72770 38119 ft 481 kts 43°
2026-05-01 13:20 28.45375 -11.67280 38129 ft 481 kts 43°
2026-05-01 13:21 28.52327 -11.59030 38106 ft 482 kts 43°
2026-05-01 13:21 28.56961 -11.53521 38105 ft 482 kts 43°
2026-05-01 13:22 28.61589 -11.48012 38114 ft 482 kts 43°
2026-05-01 13:22 28.66216 -11.42495 38116 ft 481 kts 43°
2026-05-01 13:23 28.70837 -11.36980 38113 ft 481 kts 43°
2026-05-01 13:23 28.75459 -11.31456 37949 ft 484 kts 43°
2026-05-01 13:24 28.77785 -11.28674 37684 ft 484 kts 43°
2026-05-01 13:24 28.80094 -11.25908 37423 ft 480 kts 43°
2026-05-01 13:24 28.82388 -11.23157 37160 ft 478 kts 43°
2026-05-01 13:25 28.86978 -11.17651 36658 ft 479 kts 43°
2026-05-01 13:25 28.89267 -11.14903 36395 ft 477 kts 43°
2026-05-01 13:25 28.90774 -11.13092 36156 ft 473 kts 43°
2026-05-01 13:25 28.93027 -11.10382 35768 ft 469 kts 44°
2026-05-01 13:26 28.95265 -11.07689 35380 ft 465 kts 44°
2026-05-01 13:26 28.98202 -11.04154 34851 ft 461 kts 44°
2026-05-01 13:26 29.00403 -11.01502 34456 ft 458 kts 44°
2026-05-01 13:26 29.02590 -10.98867 34062 ft 456 kts 44°
2026-05-01 13:27 29.04763 -10.96246 33630 ft 453 kts 44°
2026-05-01 13:27 29.06190 -10.94524 33339 ft 452 kts 44°
2026-05-01 13:27 29.10480 -10.89341 32567 ft 445 kts 44°
2026-05-01 13:28 29.14786 -10.84139 31826 ft 466 kts 44°
2026-05-01 13:28 29.17069 -10.81379 31410 ft 476 kts 44°
2026-05-01 13:29 29.21641 -10.75838 30567 ft 479 kts 44°
2026-05-01 13:29 29.26182 -10.70321 29661 ft 480 kts 44°
2026-05-01 13:30 29.35309 -10.59217 27909 ft 477 kts 45°
2026-05-01 13:31 29.39864 -10.53666 27045 ft 478 kts 44°
2026-05-01 13:31 29.46741 -10.45271 25769 ft 484 kts 44°
2026-05-01 13:32 29.51360 -10.39621 24865 ft 483 kts 45°
2026-05-01 13:33 29.58109 -10.31346 23552 ft 466 kts 45°
2026-05-01 13:33 29.62510 -10.25944 22628 ft 459 kts 45°
2026-05-01 13:34 29.66839 -10.20624 21788 ft 452 kts 45°
2026-05-01 13:34 29.71101 -10.15379 20972 ft 446 kts 45°
2026-05-01 13:35 29.75308 -10.10194 20159 ft 441 kts 45°
2026-05-01 13:35 29.77398 -10.07615 19749 ft 440 kts 45°
2026-05-01 13:35 29.81551 -10.02488 18918 ft 436 kts 45°
2026-05-01 13:36 29.83601 -9.99918 18399 ft 435 kts 46°
2026-05-01 13:36 29.85618 -9.97336 17907 ft 432 kts 46°
2026-05-01 13:36 29.89560 -9.92252 17056 ft 419 kts 47°
2026-05-01 13:37 29.91487 -9.89769 16661 ft 412 kts 47°
2026-05-01 13:37 29.93391 -9.87321 16271 ft 408 kts 47°
2026-05-01 13:37 29.95273 -9.84902 15889 ft 404 kts 47°
2026-05-01 13:37 29.97144 -9.82498 15471 ft 400 kts 47°
2026-05-01 13:38 30.00832 -9.77755 14722 ft 394 kts 47°
2026-05-01 13:38 30.02653 -9.75409 14346 ft 391 kts 47°
2026-05-01 13:38 30.04468 -9.73082 13987 ft 389 kts 46°
2026-05-01 13:39 30.06304 -9.70811 13628 ft 385 kts 45°
2026-05-01 13:39 30.08142 -9.68577 13237 ft 382 kts 45°
2026-05-01 13:39 30.09967 -9.66362 12838 ft 379 kts 46°
2026-05-01 13:39 30.11778 -9.64152 12452 ft 377 kts 46°
2026-05-01 13:40 30.13572 -9.61954 12080 ft 375 kts 46°
2026-05-01 13:40 30.15352 -9.59757 11696 ft 373 kts 49°
2026-05-01 13:40 30.16772 -9.57261 11244 ft 372 kts 64°
2026-05-01 13:40 30.17808 -9.54566 11003 ft 362 kts 68°
2026-05-01 13:41 30.18762 -9.51909 10747 ft 354 kts 68°
2026-05-01 13:41 30.19687 -9.49304 10506 ft 347 kts 68°
2026-05-01 13:41 30.20530 -9.46726 10259 ft 338 kts 75°
2026-05-01 13:41 30.21101 -9.44190 9925 ft 326 kts 78°
2026-05-01 13:42 30.21619 -9.41679 9532 ft 317 kts 78°
2026-05-01 13:42 30.22099 -9.39228 9117 ft 308 kts 83°
2026-05-01 13:42 30.22288 -9.36803 8779 ft 298 kts 88°
2026-05-01 13:42 30.22419 -9.34445 8453 ft 292 kts 89°
2026-05-01 13:43 30.22554 -9.32109 8148 ft 291 kts 88°
2026-05-01 13:43 30.22688 -9.29783 7831 ft 290 kts 88°
2026-05-01 13:43 30.22816 -9.27467 7529 ft 289 kts 89°
2026-05-01 13:43 30.22951 -9.25162 7089 ft 287 kts 89°
2026-05-01 13:44 30.23078 -9.23089 6764 ft 281 kts 88°
2026-05-01 13:44 30.23217 -9.20810 6529 ft 270 kts 89°
2026-05-01 13:44 30.23351 -9.18673 6214 ft 263 kts 89°
2026-05-01 13:44 30.23482 -9.16607 5870 ft 252 kts 88°
2026-05-01 13:45 30.23876 -9.14697 5491 ft 244 kts 62°
2026-05-01 13:45 30.25017 -9.13310 5148 ft 234 kts 29°
2026-05-01 13:45 30.26523 -9.12862 4909 ft 219 kts
2026-05-01 13:45 30.28006 -9.12901 4643 ft 209 kts 349°
2026-05-01 13:46 30.29307 -9.13563 4403 ft 203 kts 327°
2026-05-01 13:46 30.30510 -9.14421 4161 ft 204 kts 328°
2026-05-01 13:46 30.31495 -9.15526 4105 ft 200 kts 294°
2026-05-01 13:46 30.31689 -9.17115 3932 ft 205 kts 269°
2026-05-01 13:47 30.31717 -9.18791 3650 ft 210 kts 273°
2026-05-01 13:47 30.31778 -9.20465 3377 ft 207 kts 272°
2026-05-01 13:47 30.31822 -9.22111 3107 ft 202 kts 272°
2026-05-01 13:47 30.31858 -9.23685 2862 ft 189 kts 271°
2026-05-01 13:48 30.31891 -9.25189 2617 ft 184 kts 271°
2026-05-01 13:48 30.31924 -9.26635 2360 ft 174 kts 271°
2026-05-01 13:48 30.31954 -9.27975 2162 ft 161 kts 271°
2026-05-01 13:48 30.31982 -9.29181 1977 ft 145 kts 271°
2026-05-01 13:49 30.32007 -9.30311 1785 ft 134 kts 269°
2026-05-01 13:49 30.32031 -9.31351 1636 ft 125 kts 269°
2026-05-01 13:49 30.32054 -9.32378 1443 ft 128 kts 270°
2026-05-01 13:49 30.32078 -9.33401 1281 ft 126 kts 270°
2026-05-01 13:50 30.32101 -9.34414 1123 ft 126 kts 270°
2026-05-01 13:50 30.32125 -9.35438 959 ft 130 kts 271°
2026-05-01 13:50 30.32144 -9.36495 811 ft 133 kts 273°
2026-05-01 13:50 30.32178 -9.37561 628 ft 132 kts 270°
2026-05-01 13:51 30.32195 -9.38609 470 ft 127 kts 271°
2026-05-01 13:51 30.32227 -9.39592 267 ft 117 kts 270°
2026-05-01 13:51 30.32247 -9.40456 230 ft 90 kts 271°
2026-05-01 13:51 30.32258 -9.41005 230 ft 46 kts 271°
2026-05-01 13:52 30.32266 -9.41291 230 ft 30 kts 272°
2026-05-01 13:52 30.32272 -9.41459 230 ft 14 kts 279°
2026-05-01 13:52 30.32338 -9.41529 232 ft 14 kts 354°
2026-05-01 13:52 30.32431 -9.41526 230 ft 13 kts
2026-05-01 13:53 30.32521 -9.41523 230 ft 13 kts
2026-05-01 13:53 30.32697 -9.41516 230 ft 14 kts
2026-05-01 13:53 30.32788 -9.41505 230 ft 12 kts 27°
2026-05-01 13:54 30.32817 -9.41422 230 ft 11 kts 86°
2026-05-01 13:54 30.32816 -9.41332 230 ft 11 kts 91°
2026-05-01 13:54 30.32814 -9.41245 230 ft 11 kts 91°
2026-05-01 13:54 30.32812 -9.41160 230 ft 10 kts 91°
2026-05-01 13:55 30.32809 -9.41077 230 ft 10 kts 92°
2026-05-01 13:55 30.32809 -9.41012 230 ft 5 kts 83°
2026-05-01 13:55 30.32825 -9.40999 232 ft 3 kts
2026-05-01 13:55 30.32849 -9.40998 230 ft 4 kts
2026-05-01 13:56 30.32874 -9.40997 230 ft 3 kts
2026-05-01 13:56 30.32882 -9.40997 230 ft 0 kts